ARABSAT-6A

Last updated on Wed Oct 29 2025 00:02:50 GMT+0000 (Coordinated Universal Time)

1 44186U 19021A 25300.76457685 .00000164 00000+0 00000+0 0 9993 2 44186 0.0520 311.3636 0007546 300.3410 90.4431 1.00269768 23823
UTC large
Height (km)
Speed (km/s)
/
Latitude / Longitude
Inclination (degrees)
Orbital Period (minutes)
Azimuth
Elevation
Range (km)
Doppler Factor

Next 0 passes for location: London (51.5072 / 0.1276)

Sorry there are no passes over London.